Weather in Bolshoy Istok

Russia / Sverdlovsk Oblast     56°43′16″N   60°46′10″E
temp.,
°C
wind,
m/s
gust,
m/s
humid.,
%
clouds,
%
prec.,
mm/h
press.,
hPa
HPBL,
m
26 july, mon
mon2623:00+10nw310629 0.0 1018252
02:00+8wnw227431 0.0 101927
05:00+11w2562100 0.0 1019149
08:00+13wnw385592 0.0 1019420
11:00+16wnw4736100 0.0 10192378
14:00+16wnw4744100 0.0 10181786
17:00+18wnw3638100 0.0 10172335
20:00+15w375468 0.0 1017308
27 july, tue
tue2723:00+12w397173 0.0 1017298
02:00+10wsw31082100 0.0 1016241
05:00+12wsw4116958 0.0 1015389
08:00+15wsw4106099 0.0 1013529
11:00+14w51180100 0.3 1012898
14:00+19wnw575662 0.1 10111521
17:00+18nw585484 0.4 10101656
20:00+15nw377599 0.2 1010381
28 july, wed
wed2823:00+12nw258410 0.3 1011135
02:00+7nw26935 0.0 1012141
05:00+6w26965 0.0 1012122
08:00+11wnw496735 0.1 1011617
11:00+16wnw6104287 0.3 10092289
14:00+13w596390 0.4 10101368
17:00+13nw595822 0.8 10101490
20:00+12nw47545 0.0 10121029
29 july, thu
thu2923:00+7w117359 0.0 101312
02:00+7wsw257895 0.0 1012123
05:00+8wsw1274100 0.0 101140
08:00+9sw2695100 1.9 1010193
11:00+16w486647 2.8 1009832
14:00+16w386476 0.1 1008475
17:00+20wsw485337 0.2 10071292
20:00+18wsw5116793 0.6 1007748
30 july, fri
fri3023:00+12wsw2109691 2.4 1007192
02:00+14wsw3119412 0.1 1006285
05:00+13wsw4129751 0.4 1006353
08:00+15w4994100 0.0 1007449
11:00+19w3574100 0.0 1007677
14:00+21w1368100 1.1 10051081
17:00+19sw3584100 2.1 1005352
20:00+17ssw239496 1.3 100489